Weather History for Monarch Pass, CO

Change the Weather History Date:

Saturday, May 11, 2013

  Actual Average (KGUC) Record (KGUC)
Temperature  
Mean Temperature 34 °F -  
Max Temperature 41 °F 61 °F 69 °F (2001)
Min Temperature 26 °F 28 °F 19 °F (2003)
Degree Days  
Heating Degree Days 32    
Moisture  
Dew Point 23 °F    
Average Humidity 67    
Maximum Humidity 93    
Minimum Humidity 45    
Precipitation  
Precipitation 0.00 in - - ()
Sea Level Pressure  
Sea Level Pressure 30.68 in    
Wind  
Wind Speed 15 mph (NE)    
Max Wind Speed 25 mph    
Max Gust Speed 29 mph    
Averages and records for this station are not official NWS values.
T = Trace of Precipitation, MM = Missing Value Source: NWS Daily Summary

Daily Weather History Graph

Daily Weather History Graph

Search for Another Location

Airport:

Trip Planner

Search our weather history database for the weather conditions in past years. The results will help you decide how hot, cold, wet, or windy it might be!

Date:

Astronomy

May. 11, 2013 Rise Set
Actual Time 5:57 AM MDT 8:06 PM MDT
Civil Twilight 5:27 AM MDT 8:36 PM MDT
Nautical Twilight 4:51 AM MDT 9:12 PM MDT
Astronomical Twilight 4:12 AM MDT 9:51 PM MDT
Moon 7:07 AM MDT (5/11) 9:48 PM MDT (5/11)
Length of Visible Light 15h 08m
Length of Day
14h 09m
Waxing Crescent, 3% of the Moon is Illuminated
May 11
Waxing Crescent
May 17
First Quarter
May 24
Full
May 31
Last Quarter
Jun 8
New

Hourly Weather History & Observations

Time (MDT) Temp. Windchill Dew Point Humidity Pressure Visibility Wind Dir Wind Speed Gust Speed Precip Events Conditions
12:12 AM 28.4 °F 15.4 °F 26.6 °F 93% 30.64 in - ENE 19.6 mph - N/A   Overcast
12:32 AM 28.4 °F 13.8 °F 26.6 °F 93% 30.63 in - ENE 25.3 mph - N/A   Unknown
12:52 AM 28.4 °F 14.4 °F 24.8 °F 86% 30.63 in - ENE 23.0 mph - N/A   Unknown
1:12 AM 28.4 °F 13.8 °F 26.6 °F 93% 30.63 in - ENE 25.3 mph - N/A   Unknown
1:32 AM 28.4 °F 13.8 °F 26.6 °F 93% 30.63 in - ENE 25.3 mph - N/A   Unknown
1:52 AM 28.4 °F 14.4 °F 26.6 °F 93% 30.63 in - ENE 23.0 mph - N/A   Overcast
2:12 AM 28.4 °F 14.4 °F 26.6 °F 93% 30.63 in - ENE 23.0 mph - N/A   Unknown
2:32 AM 28.4 °F 15.4 °F 26.6 °F 93% 30.64 in - ENE 19.6 mph - N/A   Unknown
2:52 AM 28.4 °F 15.4 °F 26.6 °F 93% 30.64 in - ENE 19.6 mph - N/A   Unknown
3:12 AM 28.4 °F 14.4 °F 24.8 °F 86% 30.63 in - ENE 23.0 mph - N/A   Unknown
3:32 AM 28.4 °F 14.1 °F 24.8 °F 86% 30.64 in - ENE 24.2 mph - N/A   Unknown
3:52 AM 28.4 °F 15.4 °F 23.0 °F 80% 30.64 in - ENE 19.6 mph - N/A   Unknown
4:12 AM 28.4 °F 17.5 °F 23.0 °F 80% 30.66 in - ENE 13.8 mph - N/A   Unknown
4:32 AM 28.4 °F 16.2 °F 23.0 °F 80% 30.65 in - ENE 17.3 mph 23.0 mph N/A   Unknown
4:52 AM 28.4 °F 16.6 °F 23.0 °F 80% 30.66 in - ENE 16.1 mph - N/A   Unknown
5:12 AM 28.4 °F 17.5 °F 23.0 °F 80% 30.66 in - ENE 13.8 mph - N/A   Unknown
5:32 AM 28.4 °F 18.5 °F 23.0 °F 80% 30.66 in - ENE 11.5 mph - N/A   Clear
5:52 AM 28.4 °F 21.2 °F 23.0 °F 80% 30.67 in - ENE 6.9 mph - N/A   Clear
6:12 AM 26.6 °F 15.2 °F 23.0 °F 86% 30.67 in - NE 13.8 mph - N/A   Unknown
6:32 AM 28.4 °F 19.1 °F 23.0 °F 80% 30.68 in - ENE 10.4 mph - N/A   Clear
6:52 AM 28.4 °F 17.5 °F 23.0 °F 80% 30.68 in - ENE 13.8 mph - N/A   Clear
7:12 AM 28.4 °F 18.0 °F 23.0 °F 80% 30.68 in - ENE 12.7 mph - N/A   Clear
7:32 AM 30.2 °F 19.3 °F 21.2 °F 69% 30.68 in - ENE 15.0 mph - N/A   Clear
7:52 AM 30.2 °F 19.3 °F 21.2 °F 69% 30.69 in - ENE 15.0 mph - N/A   Clear
8:12 AM 30.2 °F 19.3 °F 21.2 °F 69% 30.69 in - ENE 15.0 mph - N/A   Clear
8:32 AM 32.0 °F 22.1 °F 21.2 °F 64% 30.69 in - ENE 13.8 mph - N/A   Clear
8:52 AM 32.0 °F 24.2 °F 19.4 °F 60% 30.70 in - ENE 9.2 mph - N/A   Clear
9:12 AM 32.0 °F 23.0 °F 19.4 °F 60% 30.70 in - ENE 11.5 mph - N/A   Clear
9:32 AM 32.0 °F 26.4 °F 21.2 °F 64% 30.70 in - East 5.8 mph 10.4 mph N/A   Clear
9:52 AM 33.8 °F 27.0 °F 21.2 °F 60% 30.70 in - NE 8.1 mph - N/A   Clear
10:12 AM 35.6 °F 27.5 °F 21.2 °F 56% 30.70 in - NE 11.5 mph - N/A   Scattered Clouds
10:32 AM 35.6 °F - 19.4 °F 52% 30.70 in - Calm Calm - N/A   Overcast
10:52 AM 33.8 °F 29.6 °F 19.4 °F 56% 30.71 in - NNW 4.6 mph - N/A   Mostly Cloudy
11:12 AM 37.4 °F 30.8 °F 21.2 °F 52% 30.71 in - ENE 9.2 mph - N/A   Overcast
11:32 AM 37.4 °F 29.8 °F 19.4 °F 48% 30.71 in - ENE 11.5 mph - N/A   Mostly Cloudy
11:52 AM 37.4 °F 32.1 °F 19.4 °F 48% 30.71 in - East 6.9 mph - N/A   Mostly Cloudy
12:12 PM 35.6 °F 29.2 °F 21.2 °F 56% 30.71 in - East 8.1 mph - N/A   Overcast
12:32 PM 35.6 °F 32.8 °F 19.4 °F 52% 30.71 in - East 3.5 mph - N/A   Overcast
12:52 PM 37.4 °F 28.9 °F 21.2 °F 52% 30.71 in - ENE 13.8 mph 17.3 mph N/A   Overcast
1:12 PM 37.4 °F 34.9 °F 21.2 °F 52% 30.71 in - North 3.5 mph - N/A   Overcast
1:32 PM 37.4 °F - 21.2 °F 52% 30.71 in - Calm Calm - N/A   Overcast
1:52 PM 37.4 °F 32.8 °F 21.2 °F 52% 30.71 in - West 5.8 mph - N/A   Overcast
2:12 PM 41.0 °F 39.0 °F 21.2 °F 45% 30.71 in - East 3.5 mph - N/A   Overcast
2:32 PM 39.2 °F 32.5 °F 21.2 °F 49% 30.70 in - WSW 10.4 mph 17.3 mph N/A   Overcast
2:52 PM 39.2 °F 35.9 °F 19.4 °F 45% 30.70 in - WNW 4.6 mph - N/A   Overcast
3:12 PM 39.2 °F 29.3 °F 23.0 °F 52% 30.69 in - West 20.7 mph 28.8 mph N/A   Overcast
3:32 PM 37.4 °F 28.2 °F 21.2 °F 52% 30.69 in - West 16.1 mph 24.2 mph N/A   Overcast
3:52 PM 37.4 °F 29.3 °F 23.0 °F 56% 30.68 in - WSW 12.7 mph 18.4 mph N/A   Scattered Clouds
4:12 PM 37.4 °F 30.8 °F 21.2 °F 52% 30.68 in - West 9.2 mph - N/A   Scattered Clouds
4:32 PM 35.6 °F 29.9 °F 23.0 °F 60% 30.68 in - West 6.9 mph 18.4 mph N/A   Mostly Cloudy
4:52 PM 39.2 °F 30.8 °F 21.2 °F 49% 30.67 in - West 15.0 mph - N/A   Scattered Clouds
5:12 PM 41.0 °F 38.0 °F 21.2 °F 45% 30.67 in - WSW 4.6 mph - N/A   Clear
5:32 PM 39.2 °F 29.8 °F 23.0 °F 52% 30.67 in - WSW 18.4 mph 21.9 mph N/A   Mostly Cloudy
5:52 PM 39.2 °F 30.5 °F 21.2 °F 49% 30.67 in - WNW 16.1 mph 27.6 mph N/A   Scattered Clouds
6:12 PM 37.4 °F 26.9 °F 23.0 °F 56% 30.67 in - West 20.7 mph 26.5 mph N/A   Scattered Clouds
6:32 PM 37.4 °F 28.2 °F 21.2 °F 52% 30.67 in - West 16.1 mph 21.9 mph N/A   Mostly Cloudy
6:52 PM 35.6 °F 24.5 °F 24.8 °F 65% 30.67 in - WSW 20.7 mph - N/A   Scattered Clouds
7:12 PM 35.6 °F 26.6 °F 24.8 °F 65% 30.67 in - SW 13.8 mph - N/A   Clear
7:32 PM 35.6 °F 29.2 °F 24.8 °F 65% 30.68 in - WSW 8.1 mph - N/A   Clear
7:52 PM 35.6 °F 29.2 °F 23.0 °F 60% 30.68 in - West 8.1 mph - N/A   Clear
8:12 PM 33.8 °F 27.0 °F 23.0 °F 65% 30.68 in - West 8.1 mph - N/A   Clear
8:32 PM 33.8 °F 25.8 °F 23.0 °F 65% 30.69 in - West 10.4 mph - N/A   Clear
8:52 PM 33.8 °F - 23.0 °F 65% 30.69 in - Calm Calm - N/A   Scattered Clouds
9:12 PM 33.8 °F 27.0 °F 24.8 °F 70% 30.69 in - ENE 8.1 mph - N/A   Mostly Cloudy
9:32 PM 32.0 °F 24.2 °F 28.4 °F 87% 30.70 in - ENE 9.2 mph - N/A   Mostly Cloudy
9:52 PM 32.0 °F 26.4 °F 30.2 °F 93% 30.71 in - ENE 5.8 mph - N/A   Unknown
10:12 PM 33.8 °F 28.6 °F 28.4 °F 81% 30.71 in - NE 5.8 mph - N/A   Scattered Clouds
10:32 PM 33.8 °F 27.7 °F 24.8 °F 70% 30.71 in - West 6.9 mph - N/A   Scattered Clouds
10:52 PM 33.8 °F 25.8 °F 23.0 °F 65% 30.70 in - WNW 10.4 mph - N/A   Clear
11:12 PM 33.8 °F 27.7 °F 21.2 °F 60% 30.70 in - NW 6.9 mph - N/A   Clear
11:32 PM 33.8 °F 26.4 °F 21.2 °F 60% 30.70 in - West 9.2 mph - N/A   Clear
11:52 PM 32.0 °F 23.6 °F 23.0 °F 69% 30.69 in - SW 10.4 mph - N/A   Clear